Torna al catalogo

COSMOS 1867 COOLANT

AttivoLEO
NORAD 39639·DEBRIS·🇷🇺 Russia

Lanciato Jul 10, 1987 da Baikonur Cosmodrome

Loading…

Prossimi Passaggi (prossime 24 ore)

TLE

AggiornatoSource: Space-Track

Epoca: Sep 14, 2026, 08:03 UTC

1 39639U 87060G   26257.33605652  .00000138  00000-0  85778-4 0  9994
2 39639  65.0048 122.7302 0018600 277.8024  82.0949 14.33697214650358

Traccia COSMOS 1867 COOLANT in tempo reale con AllMySat

Download on the App Store